Back to catalog

COSMOS 1269

AliveNavigationLEO
NORAD 12442·PAYLOAD·🇷🇺 Russia

Launched May 7, 1981 from Plesetsk Cosmodrome

Loading…

Next Passes (next 24 hours)

TLE

FreshSource: Space-Track

Epoch: Sep 14, 2026, 06:26 UTC

1 12442U 81041A   26257.26810733  .00000080  00000-0  38481-4 0  9995
2 12442  74.0538 203.0131 0008833  43.9190 316.2662 14.33149328368742

Track COSMOS 1269 in real time with AllMySat

Download on the App Store